�������l�o���
Date,Time,MP-1(��Sv/h),MP-2(��Sv/h),MP-3(��Sv/h),MP-4(��Sv/h),MP-5(��Sv/h),MP-6(��Sv/h),MP-7(��Sv/h),MP-8(��Sv/h),����,����(m/s),���J
2019/11/02,00:00,0.713,1.015,0.661,1.246,0.882,0.411,0.713,0.675,���k��,3.1,��
2019/11/02,00:10,0.712,1.013,0.663,1.247,0.880,0.410,0.712,0.676,���k��,3.9,��
2019/11/02,00:20,0.711,1.016,0.661,1.247,0.883,0.411,0.712,0.675,���k��,3.3,��
2019/11/02,00:30,0.712,1.015,0.661,1.247,0.881,0.411,0.713,0.675,���k��,3.1,��
2019/11/02,00:40,0.711,1.015,0.662,1.248,0.881,0.412,0.712,0.675,���k��,2.9,��
2019/11/02,00:50,0.712,1.017,0.660,1.248,0.880,0.412,0.713,0.675,���k��,1.8,��
2019/11/02,01:00,0.713,1.016,0.660,1.246,0.881,0.410,0.712,0.675,���k��,2.4,��
2019/11/02,01:10,0.711,1.015,0.661,1.247,0.880,0.411,0.712,0.676,���k��,2.6,��
2019/11/02,01:20,0.713,1.017,0.661,1.246,0.881,0.411,0.712,0.676,���k��,3.0,��
2019/11/02,01:30,0.712,1.015,0.662,1.247,0.880,0.412,0.713,0.675,���k��,2.8,��
2019/11/02,01:40,0.713,1.017,0.660,1.247,0.880,0.411,0.712,0.675,���k��,2.9,��
2019/11/02,01:50,0.711,1.015,0.660,1.247,0.879,0.411,0.712,0.677,���k��,3.0,��
2019/11/02,02:00,0.712,1.016,0.661,1.245,0.881,0.413,0.712,0.675,���k��,4.0,��
2019/11/02,02:10,0.713,1.014,0.660,1.246,0.881,0.411,0.712,0.677,��,3.9,��
2019/11/02,02:20,0.710,1.017,0.660,1.248,0.879,0.412,0.711,0.676,��,2.7,��
2019/11/02,02:30,0.713,1.015,0.661,1.247,0.880,0.412,0.713,0.676,���k��,4.0,��
2019/11/02,02:40,0.713,1.014,0.661,1.246,0.880,0.412,0.712,0.677,���k��,3.4,��
2019/11/02,02:50,0.711,1.016,0.661,1.249,0.881,0.412,0.712,0.675,���k��,3.9,��
2019/11/02,03:00,0.714,1.016,0.660,1.247,0.880,0.412,0.712,0.677,�k��,4.2,��
2019/11/02,03:10,0.712,1.015,0.662,1.245,0.881,0.413,0.713,0.676,�k��,3.8,��
2019/11/02,03:20,0.711,1.015,0.661,1.248,0.880,0.412,0.710,0.676,���k��,3.6,��
2019/11/02,03:30,0.710,1.015,0.661,1.247,0.880,0.412,0.710,0.676,��,2.9,��
2019/11/02,03:40,0.711,1.015,0.661,1.247,0.880,0.411,0.712,0.675,���쐼,3.2,��
2019/11/02,03:50,0.710,1.016,0.659,1.247,0.881,0.412,0.712,0.676,��,2.8,��
2019/11/02,04:00,0.712,1.013,0.661,1.247,0.879,0.412,0.712,0.676,��,3.8,��
2019/11/02,04:10,0.711,1.015,0.662,1.247,0.879,0.411,0.711,0.677,���k��,4.2,��
2019/11/02,04:20,0.711,1.016,0.661,1.247,0.881,0.411,0.712,0.677,���k��,5.5,��
2019/11/02,04:30,0.712,1.017,0.661,1.248,0.880,0.412,0.712,0.678,���k��,6.0,��
2019/11/02,04:40,0.711,1.018,0.662,1.246,0.880,0.412,0.711,0.676,���k��,4.3,��
2019/11/02,04:50,0.709,1.014,0.663,1.246,0.879,0.411,0.714,0.675,���k��,4.0,��
2019/11/02,05:00,0.711,1.015,0.663,1.246,0.879,0.412,0.712,0.675,���k��,4.7,��
2019/11/02,05:10,0.711,1.016,0.662,1.245,0.879,0.411,0.713,0.676,���k��,6.3,��
2019/11/02,05:20,0.711,1.015,0.660,1.248,0.880,0.411,0.711,0.675,��,6.4,��
2019/11/02,05:30,0.712,1.016,0.661,1.247,0.878,0.413,0.712,0.677,��,6.0,��
2019/11/02,05:40,0.712,1.013,0.661,1.248,0.880,0.412,0.712,0.675,���k��,6.4,��
2019/11/02,05:50,0.712,1.014,0.662,1.247,0.881,0.411,0.713,0.676,���k��,6.0,��
2019/11/02,06:00,0.711,1.015,0.662,1.246,0.879,0.411,0.710,0.676,���k��,6.0,��
2019/11/02,06:10,0.712,1.012,0.662,1.246,0.879,0.411,0.710,0.677,���k��,6.3,��
2019/11/02,06:20,0.712,1.014,0.660,1.247,0.879,0.412,0.711,0.676,���k��,5.3,��
2019/11/02,06:30,0.713,1.014,0.660,1.245,0.880,0.411,0.711,0.675,��,5.3,��
2019/11/02,06:40,0.712,1.014,0.662,1.248,0.879,0.410,0.712,0.676,���k��,4.9,��
2019/11/02,06:50,0.712,1.015,0.662,1.249,0.881,0.413,0.712,0.677,��,5.2,��
2019/11/02,07:00,0.712,1.014,0.661,1.246,0.878,0.412,0.713,0.676,���k��,5.2,��
2019/11/02,07:10,0.712,1.016,0.662,1.246,0.880,0.411,0.711,0.677,���k��,5.3,��
2019/11/02,07:20,0.713,1.017,0.661,1.248,0.879,0.412,0.712,0.676,�k��,3.8,��
2019/11/02,07:30,0.713,1.016,0.660,1.249,0.878,0.410,0.712,0.677,�k��,3.8,��
2019/11/02,07:40,0.712,1.018,0.661,1.249,0.879,0.412,0.714,0.676,�k��,3.8,��
2019/11/02,07:50,0.713,1.016,0.661,1.248,0.881,0.412,0.713,0.676,�k��,3.6,��
2019/11/02,08:00,0.711,1.016,0.661,1.249,0.881,0.412,0.714,0.676,���k��,2.5,��
2019/11/02,08:10,0.714,1.017,0.661,1.249,0.880,0.411,0.714,0.677,���k��,2.0,��
2019/11/02,08:20,0.715,1.015,0.661,1.249,0.881,0.413,0.714,0.676,��,1.5,��
2019/11/02,08:30,0.715,1.013,0.660,1.247,0.882,0.412,0.712,0.677,���k��,2.7,��
2019/11/02,08:40,0.715,1.010,0.659,1.245,0.879,0.412,0.712,0.677,���k��,3.0,��
2019/11/02,08:50,0.714,1.013,0.659,1.246,0.879,0.413,0.712,0.676,���k��,2.8,��
2019/11/02,09:00,0.716,1.011,0.661,1.247,0.880,0.412,0.712,0.676,���k��,3.2,��
2019/11/02,09:10,0.716,1.011,0.661,1.249,0.880,0.412,0.713,0.677,�k��,2.2,��
2019/11/02,09:20,0.716,1.007,0.662,1.247,0.881,0.412,0.710,0.676,�k��,3.2,��
2019/11/02,09:30,0.717,1.011,0.661,1.245,0.883,0.414,0.712,0.678,�k��,3.1,��
2019/11/02,09:40,0.714,1.010,0.661,1.248,0.882,0.414,0.713,0.678,�k��,2.9,��
2019/11/02,09:50,0.714,1.010,0.660,1.249,0.881,0.413,0.713,0.680,�k�k��,2.2,��
2019/11/02,10:00,0.715,1.014,0.659,1.247,0.881,0.412,0.713,0.679,���k��,1.8,��
2019/11/02,10:10,0.714,1.013,0.661,1.250,0.881,0.411,0.712,0.679,�k�k��,1.5,��
2019/11/02,10:20,0.712,1.012,0.659,1.250,0.881,0.412,0.713,0.679,���쐼,1.4,��
2019/11/02,10:30,0.716,1.013,0.661,1.251,0.881,0.412,0.713,0.678,��,1.9,��
2019/11/02,10:40,0.714,1.015,0.661,1.252,0.880,0.412,0.712,0.680,���쐼,2.3,��
2019/11/02,10:50,0.716,1.015,0.662,1.251,0.881,0.412,0.713,0.678,���쐼,1.7,��
2019/11/02,11:00,0.716,1.016,0.660,1.251,0.881,0.412,0.713,0.679,���쐼,2.8,��
2019/11/02,11:10,0.716,1.015,0.663,1.251,0.881,0.411,0.715,0.677,��,4.0,��
2019/11/02,11:20,0.717,1.017,0.661,1.250,0.883,0.410,0.712,0.678,��,4.0,��
2019/11/02,11:30,0.717,1.015,0.661,1.254,0.884,0.413,0.715,0.678,��,4.5,��
2019/11/02,11:40,0.717,1.018,0.662,1.252,0.881,0.411,0.714,0.678,��,6.1,��
2019/11/02,11:50,0.717,1.017,0.663,1.251,0.884,0.413,0.714,0.678,��,5.0,��
2019/11/02,12:00,0.716,1.019,0.664,1.252,0.883,0.413,0.713,0.678,��,1.7,��
2019/11/02,12:10,0.716,1.021,0.662,1.251,0.885,0.412,0.715,0.677,��쓌,3.6,��
2019/11/02,12:20,0.716,1.019,0.662,1.252,0.882,0.413,0.714,0.676,�쓌,3.6,��
2019/11/02,12:30,0.716,1.022,0.663,1.252,0.882,0.412,0.714,0.676,��쓌,3.6,��
2019/11/02,12:40,0.717,1.023,0.664,1.251,0.884,0.413,0.714,0.673,��쓌,3.9,��
2019/11/02,12:50,0.715,1.022,0.662,1.252,0.885,0.414,0.713,0.676,��쓌,4.5,��
2019/11/02,13:00,0.716,1.021,0.662,1.253,0.884,0.414,0.713,0.675,��쓌,4.5,��
2019/11/02,13:10,0.715,1.018,0.661,1.251,0.883,0.413,0.716,0.676,��쓌,4.0,��
2019/11/02,13:20,0.717,1.017,0.661,1.250,0.884,0.413,0.714,0.675,��쓌,3.6,��
2019/11/02,13:30,0.717,1.022,0.663,1.253,0.885,0.413,0.714,0.677,��쓌,4.9,��
2019/11/02,13:40,0.716,1.021,0.662,1.252,0.887,0.412,0.713,0.677,��쓌,4.5,��
2019/11/02,13:50,0.715,1.023,0.662,1.252,0.885,0.414,0.715,0.676,��쓌,5.3,��
2019/11/02,14:00,0.716,1.021,0.662,1.253,0.885,0.414,0.713,0.675,��쓌,4.9,��
2019/11/02,14:10,0.715,1.020,0.659,1.253,0.887,0.413,0.713,0.676,��쓌,5.2,��
2019/11/02,14:20,0.714,1.023,0.662,1.253,0.887,0.413,0.713,0.675,��쓌,5.6,��
2019/11/02,14:30,0.718,1.022,0.661,1.251,0.886,0.413,0.713,0.676,��쓌,6.9,��
2019/11/02,14:40,0.716,1.021,0.666,1.251,0.885,0.414,0.713,0.675,��쓌,5.5,��
2019/11/02,14:50,0.716,1.025,0.663,1.252,0.884,0.414,0.715,0.676,��쓌,6.3,��
2019/11/02,15:00,0.714,1.025,0.664,1.253,0.888,0.414,0.715,0.675,��쓌,6.3,��
2019/11/02,15:10,0.714,1.022,0.665,1.252,0.888,0.417,0.714,0.676,��쓌,6.9,��
2019/11/02,15:20,0.715,1.023,0.662,1.252,0.885,0.413,0.714,0.675,��,6.4,��
2019/11/02,15:30,0.715,1.026,0.663,1.252,0.886,0.413,0.714,0.677,��쓌,5.7,��
2019/11/02,15:40,0.714,1.028,0.664,1.254,0.888,0.416,0.715,0.676,��쓌,5.6,��
2019/11/02,15:50,0.717,1.027,0.663,1.252,0.886,0.417,0.716,0.678,��,5.5,��
2019/11/02,16:00,0.713,1.028,0.664,1.250,0.886,0.416,0.715,0.679,��,5.5,��
2019/11/02,16:10,0.715,1.026,0.664,1.254,0.884,0.415,0.715,0.678,��,5.6,��
2019/11/02,16:20,0.715,1.027,0.663,1.252,0.883,0.415,0.715,0.679,��,4.5,��
2019/11/02,16:30,0.715,1.029,0.663,1.253,0.884,0.416,0.716,0.679,��,5.0,��
2019/11/02,16:40,0.713,1.029,0.664,1.253,0.888,0.417,0.716,0.679,��,5.8,��
2019/11/02,16:50,0.715,1.029,0.666,1.252,0.883,0.417,0.714,0.677,��,6.0,��
2019/11/02,17:00,0.715,1.029,0.665,1.254,0.886,0.416,0.715,0.678,��,6.0,��
2019/11/02,17:10,0.716,1.030,0.666,1.252,0.888,0.415,0.717,0.678,��,5.7,��
2019/11/02,17:20,0.718,1.030,0.668,1.253,0.890,0.415,0.716,0.678,��,5.5,��
2019/11/02,17:30,0.717,1.030,0.666,1.251,0.890,0.415,0.717,0.677,��쐼,6.3,��
2019/11/02,17:40,0.717,1.030,0.667,1.252,0.889,0.415,0.715,0.679,��,7.4,��
2019/11/02,17:50,0.717,1.029,0.667,1.254,0.887,0.415,0.715,0.676,��,7.4,��
2019/11/02,18:00,0.716,1.029,0.666,1.254,0.886,0.416,0.714,0.677,��쐼,7.8,��
2019/11/02,18:10,0.716,1.029,0.667,1.251,0.888,0.416,0.716,0.680,��쐼,7.2,��
2019/11/02,18:20,0.717,1.028,0.666,1.253,0.887,0.416,0.715,0.678,��쐼,8.0,��
2019/11/02,18:30,0.718,1.029,0.666,1.255,0.888,0.415,0.715,0.677,��쐼,7.4,��
2019/11/02,18:40,0.716,1.028,0.667,1.254,0.888,0.416,0.716,0.678,��쐼,7.7,��
2019/11/02,18:50,0.717,1.028,0.667,1.254,0.887,0.416,0.715,0.678,��쐼,6.9,��
2019/11/02,19:00,0.717,1.027,0.665,1.257,0.887,0.414,0.714,0.678,��쐼,6.0,��
2019/11/02,19:10,0.716,1.027,0.666,1.252,0.888,0.416,0.716,0.676,��쐼,5.6,��
2019/11/02,19:20,0.717,1.029,0.665,1.254,0.889,0.417,0.714,0.679,��쐼,5.5,��
2019/11/02,19:30,0.716,1.029,0.667,1.250,0.889,0.414,0.716,0.678,��쐼,5.7,��
2019/11/02,19:40,0.717,1.029,0.668,1.253,0.888,0.416,0.713,0.678,��쐼,5.8,��
2019/11/02,19:50,0.718,1.026,0.667,1.253,0.887,0.414,0.715,0.679,��쐼,5.2,��
2019/11/02,20:00,0.717,1.027,0.668,1.254,0.888,0.415,0.715,0.677,��쐼,5.5,��
2019/11/02,20:10,0.717,1.027,0.666,1.253,0.886,0.416,0.716,0.677,��쐼,4.9,��
2019/11/02,20:20,0.718,1.025,0.669,1.253,0.886,0.415,0.715,0.678,��쐼,5.6,��
2019/11/02,20:30,0.718,1.025,0.667,1.252,0.890,0.415,0.716,0.679,��쐼,4.9,��
2019/11/02,20:40,0.717,1.027,0.664,1.253,0.887,0.416,0.715,0.677,�쐼,3.8,��
2019/11/02,20:50,0.716,1.026,0.668,1.254,0.887,0.415,0.714,0.679,��쐼,4.3,��
2019/11/02,21:00,0.717,1.025,0.667,1.251,0.888,0.414,0.714,0.680,��쐼,5.0,��
2019/11/02,21:10,0.717,1.025,0.666,1.253,0.885,0.415,0.716,0.678,��쐼,6.0,��
2019/11/02,21:20,0.717,1.026,0.667,1.253,0.888,0.414,0.715,0.676,��쐼,6.0,��
2019/11/02,21:30,0.718,1.025,0.665,1.253,0.890,0.413,0.716,0.678,��쐼,6.1,��
2019/11/02,21:40,0.717,1.026,0.669,1.254,0.889,0.415,0.716,0.678,��쐼,5.8,��
2019/11/02,21:50,0.716,1.026,0.666,1.253,0.888,0.415,0.715,0.678,��쐼,5.3,��
2019/11/02,22:00,0.717,1.025,0.664,1.253,0.886,0.415,0.715,0.679,��쐼,5.3,��
2019/11/02,22:10,0.718,1.026,0.667,1.254,0.887,0.415,0.716,0.678,��쐼,4.0,��
2019/11/02,22:20,0.718,1.027,0.666,1.250,0.887,0.415,0.715,0.677,��쐼,3.9,��
2019/11/02,22:30,0.718,1.025,0.666,1.252,0.888,0.414,0.715,0.680,��쐼,4.2,��
2019/11/02,22:40,0.718,1.025,0.667,1.252,0.888,0.416,0.715,0.679,��쐼,3.6,��
2019/11/02,22:50,0.719,1.022,0.667,1.252,0.889,0.414,0.715,0.678,��쐼,3.6,��
2019/11/02,23:00,0.717,1.024,0.666,1.253,0.887,0.415,0.715,0.679,��쐼,3.4,��
2019/11/02,23:10,0.717,1.027,0.666,1.255,0.886,0.415,0.717,0.677,��쐼,2.9,��
2019/11/02,23:20,0.718,1.025,0.667,1.252,0.889,0.418,0.716,0.679,��쐼,2.7,��
2019/11/02,23:30,0.718,1.023,0.665,1.253,0.886,0.415,0.715,0.680,��쐼,3.3,��
2019/11/02,23:40,0.717,1.024,0.665,1.253,0.887,0.414,0.715,0.678,�쐼,3.8,��
2019/11/02,23:50,0.719,1.022,0.667,1.254,0.886,0.415,0.715,0.678,��쐼,2.7,��
